Weather observations for the past three days for
Marquette, Sawyer International Airport
Imperial (Metric)
Date Time (edt) Wind (mph) Vis. (mi.) Weather Sky Cond. Temperature (ºF) Relative Humidity Wind Chill (°F) Heat Index (°F) Pressure Precipitation (in)
Air Dwpt 6 hour altimeter (in) sea level (mb) 1 hr 3 hr 6 hr
Max. Min.
25 11:46 W 9 10.00 A Few Clouds FEW090 77 64.4 65% 79 29.63 0.0
25 10:46 W 14 10.00 Fair CLR 75.2 62.6 65% 77 29.63 0.0
25 09:46 W 13 10.00 Fair CLR 69.8 64.4 83% 29.64 0.0
25 08:46 SW 8 10.00 Fair CLR 66.2 62.6 88% 29.63 0.0
25 07:47 W 7 10.00 Mostly Cloudy FEW060 BKN120 62.6 62.6 100% 29.61 0.0
25 06:46 E 3 10.00 Mostly Cloudy FEW060 BKN120 64.4 62.6 94% 29.57 0.0
25 05:58 SW 12 10.00 Light Rain FEW007 FEW050 BKN110 62.6 60.8 94% 29.6 0.0
25 05:38 SE 9 G 25 10.00 Thunderstorm in Vicinity Rain FEW090 OVC110 62.6 62.6 100% 29.59 0.0
25 05:18 SE 16 5.00 Rain Fog/Mist FEW075 BKN100 60.8 60.8 100% 29.63 0.0
25 04:58 SW 10 5.00 Thunderstorm in Vicinity Rain Fog/Mist SCT019 SCT038 BKN080 60.8 59 94% 29.73 0.0
25 04:38 SW 14 4.00 Thunderstorm Heavy Rain Fog/Mist SCT047 BKN050 BKN080 59 59 100% 29.72 0.0
25 04:18 SW 9 10.00 Thunderstorm Light Rain FEW032 BKN043 OVC048 59 57.2 94% 29.7 0.0
25 03:58 S 14 10.00 Thunderstorm in Vicinity Rain FEW024 BKN033 OVC110 59 57.2 94% 29.67 0.0
25 03:38 W 8 10.00 Light Rain FEW100 BKN120 59 57.2 94% 29.65 0.0
25 03:18 SW 12 10.00 Thunderstorm in Vicinity Rain FEW090 SCT110 60.8 55.4 83% 29.63 0.0
25 02:58 S 6 10.00 Thunderstorm in Vicinity Rain FEW065 SCT100 SCT120 60.8 55.4 83% 29.6 0.0
25 02:38 S 13 10.00 Thunderstorm in Vicinity CLR 60.8 55.4 83% 29.65 0.0
25 02:18 S 9 10.00 Fair CLR 60.8 55.4 83% 29.67 0.0
25 01:58 S 12 10.00 Fair CLR 60.8 55.4 83% 29.68 0.0
25 01:38 S 12 10.00 Fair CLR 60.8 53.6 77% 29.71 0.0
25 01:18 S 10 10.00 Fair CLR 60.8 53.6 77% 29.69 0.0
25 00:58 S 10 10.00 Fair CLR 60.8 53.6 77% 29.72 0.0
25 00:38 S 10 10.00 Fair CLR 60.8 53.6 77% 29.76 0.0
25 00:18 S 13 10.00 Fair CLR 62.6 53.6 73% 29.75 0.0
24 23:58 S 14 10.00 Fair CLR 62.6 53.6 73% 29.76 0.0
24 23:38 S 12 10.00 Fair CLR 62.6 53.6 73% 29.77 0.0
24 23:18 S 13 10.00 Fair CLR 62.6 53.6 73% 29.77 0.0
24 22:58 S 8 10.00 Fair CLR 62.6 53.6 73% 29.78 0.0
24 22:38 S 10 10.00 Fair CLR 64.4 55.4 73% 29.77 0.0
24 22:18 S 10 1.75 Fair with Haze CLR 64.4 55.4 73% 29.77 0.0
24 21:47 S 14 10.00 Fair CLR 66.2 55.4 68% 29.77 0.0
24 19:47 S 17 G 23 10.00 Fair CLR 69.8 57.2 64% 29.78 0.0
24 18:47 S 14 10.00 Fair CLR 73.4 59 61% 29.82 0.0
24 17:50 SW 17 G 25 10.00 Fair CLR 78.8 55.4 45% 79 29.84 0.0
24 16:46 SW 14 10.00 A Few Clouds FEW055 77 53.6 44% 78 29.87 0.0
24 15:46 S 15 G 21 10.00 A Few Clouds FEW055 77 53.6 44% 78 29.87 0.0
24 14:46 SW 14 10.00 A Few Clouds FEW050 78.8 53.6 42% 79 29.91 0.0
24 13:46 S 12 10.00 A Few Clouds FEW049 77 53.6 44% 78 29.93 0.0
24 12:47 S 12 10.00 A Few Clouds FEW050 75.2 53.6 47% 78 29.95 0.0
24 11:46 S 5 10.00 Fair CLR 73.4 53.6 50% 29.95 0.0
24 10:46 SW 6 10.00 Fair CLR 69.8 51.8 53% 29.97 0.0
24 09:46 S 3 10.00 Fair CLR 66.2 55.4 68% 29.96 0.0
24 08:47 W 3 10.00 Fair CLR 62.6 55.4 77% 29.96 0.0
24 07:47 Calm 10.00 Fair CLR 55.4 53.6 94% 29.95 0.0
24 06:47 Calm 10.00 A Few Clouds FEW120 50 48.2 94% 29.96 0.0
24 05:58 NW 2 10.00 Fair CLR 46.4 46.4 100% 29.94 0.0
24 05:38 Calm 4.00 Fog/Mist CLR 48.2 48.2 100% 29.93 0.0
24 05:18 S 1 10.00 Fair CLR 50 50 100% 29.92 0.0
24 04:58 Calm 10.00 Fair CLR 50 48.2 94% 29.92 0.0
24 04:38 W 2 10.00 Fair CLR 50 50 100% 29.92 0.0
24 04:18 SW 2 10.00 Fair CLR 50 50 100% 29.92 0.0
24 03:58 SW 3 10.00 Fair CLR 51.8 50 94% 29.92 0.0
24 03:38 Calm 10.00 Fair CLR 50 50 100% 29.92 0.0
24 03:18 NW 1 10.00 Fair CLR 50 50 100% 29.92 0.0
24 02:58 NW 2 10.00 Fair CLR 50 48.2 94% 29.92 0.0
24 02:38 NW 3 10.00 Fair CLR 50 48.2 94% 29.91 0.0
24 02:18 N 2 10.00 Fair CLR 51.8 50 94% 29.91 0.0
24 01:58 NW 2 10.00 Fair CLR 51.8 50 94% 29.91 0.0
24 01:38 NW 1 10.00 Fair CLR 53.6 51.8 94% 29.91 0.0
24 01:18 NW 3 10.00 A Few Clouds FEW090 51.8 51.8 100% 29.91 0.0
24 00:58 W 3 10.00 Partly Cloudy SCT090 53.6 51.8 94% 29.9 0.0
24 00:38 W 5 10.00 Mostly Cloudy BKN090 53.6 51.8 94% 29.9 0.0
24 00:18 W 3 10.00 Fair CLR 55.4 51.8 88% 29.9 0.0
23 23:58 NW 5 10.00 A Few Clouds FEW090 53.6 51.8 94% 29.9 0.0
23 23:38 N 6 10.00 Overcast OVC090 55.4 51.8 88% 29.9 0.0
23 23:18 NE 7 10.00 Mostly Cloudy BKN090 57.2 53.6 88% 29.9 0.0
23 22:58 NE 8 10.00 Mostly Cloudy BKN090 59 53.6 82% 29.89 0.0
23 22:38 NE 8 10.00 Overcast SCT070 OVC090 59 53.6 82% 29.88 0.0
23 22:18 NE 10 3.00 Overcast with Haze FEW070 BKN090 OVC110 60.8 53.6 77% 29.87 0.0
23 21:55 NE 12 10.00 Overcast SCT070 OVC110 62.6 53.6 73% 29.86 0.0
23 20:47 N 10 10.00 Mostly Cloudy FEW070 BKN120 66.2 53.6 64% 29.83 0.0
23 19:47 N 12 10.00 Mostly Cloudy BKN120 68 53.6 60% 29.82 0.0
23 18:47 N 13 10.00 Partly Cloudy SCT110 71.6 55.4 57% 29.8 0.0
23 17:47 N 17 10.00 Fair CLR 73.4 55.4 53% 29.78 0.0
23 16:45 N 10 10.00 Partly Cloudy FEW080 SCT120 75.2 53.6 47% 78 29.77 0.0
23 15:45 N 16 G 21 10.00 Mostly Cloudy FEW047 SCT065 BKN075 75.2 53.6 47% 78 29.76 0.0
23 14:45 N 13 G 17 10.00 Partly Cloudy SCT048 SCT055 73.4 55.4 53% 29.76 0.0
23 13:45 NW 12 10.00 Mostly Cloudy SCT044 BKN050 BKN055 73.4 55.4 53% 29.75 0.0
23 12:47 N 10 10.00 Partly Cloudy FEW036 SCT043 73.4 55.4 53% 29.74 0.0
23 11:47 N 14 G 18 10.00 A Few Clouds FEW065 71.6 53.6 53% 29.73 0.0
23 10:47 NW 15 10.00 Mostly Cloudy SCT033 BKN065 BKN120 66.2 51.8 60% 29.74 0.0
23 09:47 NW 13 10.00 Mostly Cloudy SCT032 BKN045 BKN110 60.8 51.8 72% 29.72 0.0
23 08:47 NW 14 10.00 Mostly Cloudy FEW034 SCT040 BKN120 59 55.4 88% 29.72 0.0
23 07:47 NW 8 10.00 Mostly Cloudy BKN032 60.8 59 94% 29.7 0.0
23 06:47 NW 10 10.00 Overcast BKN024 OVC070 59 57.2 94% 29.69 0.0
23 05:58 N 12 10.00 Overcast FEW007 BKN018 OVC027 59 57.2 94% 29.67 0.0
23 05:38 N 14 10.00 Light Drizzle BKN005 OVC016 59 57.2 94% 29.67 0.0
23 05:18 N 17 10.00 Overcast OVC005 59 57.2 94% 29.67 0.0
23 04:58 N 10 10.00 Overcast OVC005 57.2 57.2 100% 29.67 0.0
23 04:38 N 12 9.00 Light Rain OVC005 57.2 57.2 100% 29.68 0.0
23 04:18 N 8 10.00 Light Drizzle OVC005 57.2 55.4 94% 29.68 0.0
23 03:58 N 9 10.00 Overcast OVC005 57.2 55.4 94% 29.68 0.0
23 03:38 N 9 10.00 Overcast OVC005 55.4 55.4 100% 29.68 0.0
23 03:18 N 9 10.00 Overcast OVC003 55.4 55.4 100% 29.68 0.0
23 02:58 N 10 6.00 Light Drizzle Fog/Mist OVC003 55.4 55.4 100% 29.69 0.0
23 02:38 N 13 6.00 Light Drizzle Fog/Mist OVC003 55.4 55.4 100% 29.69 0.0
23 02:18 N 10 5.00 Light Drizzle Fog/Mist OVC003 55.4 55.4 100% 29.69 0.0
23 01:58 N 16 4.00 Light Rain Fog/Mist OVC003 55.4 55.4 100% 29.69 0.0
23 01:38 N 15 3.00 Light Rain Fog/Mist OVC001 55.4 55.4 100% 29.69 0.0
23 01:18 N 15 6.00 Light Rain Fog/Mist OVC001 55.4 55.4 100% 29.7 0.0
23 00:58 N 15 2.50 Light Drizzle Fog/Mist BKN001 55.4 55.4 100% 29.7 0.0
23 00:38 N 13 10.00 Light Drizzle OVC003 55.4 55.4 100% 29.7 0.0
23 00:18 NE 12 9.00 Light Rain OVC003 55.4 55.4 100% 29.7 0.0
22 23:58 NE 10 5.00 Light Rain Fog/Mist OVC003 55.4 55.4 100% 29.7 0.0
22 23:38 N 14 2.00 Light Rain Fog/Mist OVC001 55.4 55.4 100% 29.71 0.0
22 23:18 N 12 0.75 Light Drizzle Fog/Mist VV005 55.4 55.4 100% 29.71 0.0
22 22:58 N 14 1.00 Light Drizzle Fog/Mist BKN001 55.4 55.4 100% 29.71 0.0
22 22:38 N 14 2.00 Light Drizzle Fog/Mist BKN001 53.6 53.6 100% 29.7 0.0
22 22:18 N 14 1.00 Light Rain Fog/Mist CLR 53.6 53.6 100% 29.71 0.0
22 21:45 N 12 0.75 Fog/Mist OVC002 53.6 53.6 100% 29.72 0.0
22 20:45 N 12 0.06 Fog OVC001 51.8 51.8 100% 29.72 0.0
22 19:45 N 15 0.13 Light Rain Fog OVC001 51.8 51.8 100% 29.74 0.0
22 18:45 N 15 0.25 Light Rain Fog OVC002 51.8 51.8 100% 29.76 0.0
22 17:45 N 12 4.00 Light Rain Fog/Mist OVC002 51.8 51.8 100% 29.78 0.0
22 16:45 NE 16 2.00 Light Rain Fog/Mist OVC002 51.8 51.8 100% 29.8 0.0
22 15:45 NE 12 3.00 Light Rain Fog/Mist OVC002 51.8 51.8 100% 29.82 0.0
22 14:45 NE 16 4.00 Light Rain Fog/Mist BKN002 BKN009 OVC039 53.6 51.8 94% 29.84 0.0
22 13:46 NE 14 3.00 Light Rain Fog/Mist OVC002 53.6 53.6 100% 29.87 0.0
22 12:46 NE 10 2.50 Light Rain Fog/Mist OVC002 55.4 53.6 94% 29.89 0.0
Date Time (edt) Wind (mph) Vis. (mi.) Weather Sky Cond. Air Dwpt Max. Min. Relative Humidity Wind Chill (°F) Heat Index (°F) altimeter (in) sea level (mb) 1 hr 3 hr 6 hr
6 hour
Temperature (ºF) Pressure Precipitation (in)